| time (UTC) | temp F | wind direction | speed MPH | gust MPH | rain 1hr in | rain 24hr in | rain mn in | humidity % | barometer mb |
| 20260506143026 | 34 | 78 | 0.0 | 1.0 | 0.01 | 0.24 | 0.10 | 94 | 1017.6 |
| 20260506141525 | 34 | 78 | 0.0 | 2.0 | 0.01 | 0.24 | 0.10 | 94 | 1017.6 |
| 20260506140020 | 35 | 51 | 0.0 | 2.0 | 0.01 | 0.23 | 0.09 | 94 | 1017.4 |
| 20260506134516 | 36 | 51 | 0.0 | 1.0 | 0.01 | 0.23 | 0.09 | 95 | 1017.3 |
| 20260506133016 | 35 | 51 | 0.0 | 2.0 | 0.02 | 0.23 | 0.09 | 94 | 1016.9 |
| 20260506131511 | 35 | 51 | 0.0 | 4.0 | 0.02 | 0.23 | 0.09 | 94 | 1016.7 |
| 20260506130013 | 35 | 46 | 0.0 | 3.0 | 0.01 | 0.22 | 0.08 | 94 | 1016.3 |
| 20260506124507 | 35 | 38 | 0.0 | 4.0 | 0.02 | 0.22 | 0.08 | 94 | 1015.8 |
| 20260506123005 | 35 | 80 | 1.0 | 4.0 | 0.01 | 0.21 | 0.07 | 94 | 1015.7 |
| 20260506121503 | 35 | 57 | 0.0 | 3.0 | 0.02 | 0.21 | 0.07 | 94 | 1015.5 |
| 20260506120002 | 35 | 62 | 0.0 | 6.0 | 0.02 | 0.21 | 0.07 | 94 | 1015.3 |
| 20260506114603 | 35 | 65 | 0.0 | 4.0 | 0.01 | 0.20 | 0.06 | 94 | 1015.0 |
| 20260506113100 | 35 | 65 | 0.0 | 4.0 | 0.01 | 0.20 | 0.06 | 94 | 1014.6 |
| 20260506111559 | 35 | 67 | 0.0 | 4.0 | 0.00 | 0.19 | 0.05 | 94 | 1014.5 |
| 20260506110053 | 35 | 67 | 0.0 | 5.0 | 0.00 | 0.19 | 0.05 | 94 | 1014.3 |
| 20260506104557 | 36 | 67 | 1.0 | 9.0 | 0.00 | 0.19 | 0.05 | 94 | 1014.0 |
| 20260506103049 | 36 | 52 | 1.0 | 7.0 | 0.00 | 0.19 | 0.05 | 94 | 1014.0 |
| 20260506101547 | 36 | 72 | 2.0 | 11.0 | 0.00 | 0.19 | 0.05 | 94 | 1013.9 |
| 20260506100045 | 36 | 58 | 2.0 | 7.0 | 0.01 | 0.19 | 0.05 | 94 | 1013.8 |
| 20260506094544 | 36 | 66 | 1.0 | 6.0 | 0.01 | 0.19 | 0.05 | 94 | 1013.7 |
| 20260506093044 | 37 | 63 | 0.0 | 5.0 | 0.02 | 0.19 | 0.05 | 94 | 1013.7 |
| 20260506091542 | 37 | 66 | 0.0 | 4.0 | 0.03 | 0.19 | 0.05 | 94 | 1013.7 |
| 20260506090040 | 37 | 61 | 0.0 | 2.0 | 0.02 | 0.18 | 0.04 | 94 | 1013.5 |
| 20260506084538 | 36 | 61 | 0.0 | 1.0 | 0.03 | 0.18 | 0.04 | 94 | 1013.5 |
| 20260506083038 | 36 | 61 | 0.0 | 1.0 | 0.02 | 0.17 | 0.03 | 93 | 1013.5 |
| 20260506081530 | 38 | 61 | 0.0 | 4.0 | 0.01 | 0.16 | 0.02 | 94 | 1013.4 |
| 20260506080129 | 38 | 69 | 0.0 | 0.0 | 0.01 | 0.16 | 0.02 | 94 | 1013.2 |
| 20260506073026 | 38 | 69 | 0.0 | 1.0 | 0.01 | 0.15 | 0.01 | 94 | 1013.0 |
| 20260506071526 | 38 | 69 | 0.0 | 2.0 | 0.01 | 0.15 | 0.01 | 93 | 1012.9 |
| 20260506061524 | 39 | 69 | 0.0 | 0.0 | 0.00 | 0.14 | 0.00 | 93 | 1012.5 |
| 20260506044511 | 38 | 69 | 0.0 | 1.0 | 0.00 | 0.14 | 0.14 | 92 | 1011.9 |
| 20260506043009 | 38 | 69 | 0.0 | 2.0 | 0.01 | 0.14 | 0.14 | 92 | 1011.8 |
| 20260506041508 | 38 | 70 | 0.0 | 1.0 | 0.01 | 0.14 | 0.14 | 92 | 1011.7 |
| 20260506040009 | 38 | 70 | 0.0 | 2.0 | 0.02 | 0.14 | 0.14 | 92 | 1011.7 |
| 20260506034506 | 38 | 69 | 0.0 | 1.0 | 0.02 | 0.14 | 0.14 | 92 | 1011.4 |
| 20260506033004 | 39 | 69 | 0.0 | 2.0 | 0.02 | 0.13 | 0.13 | 92 | 1011.2 |
| 20260506031600 | 39 | 66 | 0.0 | 2.0 | 0.02 | 0.13 | 0.13 | 91 | 1010.8 |
| 20260506030103 | 39 | 65 | 0.0 | 3.0 | 0.02 | 0.12 | 0.12 | 91 | 1010.3 |
| 20260506024610 | 39 | 65 | 0.0 | 3.0 | 0.03 | 0.12 | 0.12 | 91 | 1009.9 |
| 20260506023102 | 39 | 65 | 0.0 | 1.0 | 0.02 | 0.11 | 0.11 | 91 | 1009.9 |
| 20260506021557 | 39 | 65 | 0.0 | 2.0 | 0.03 | 0.11 | 0.11 | 90 | 1009.8 |
| 20260506020047 | 39 | 63 | 0.0 | 3.0 | 0.03 | 0.10 | 0.10 | 90 | 1009.0 |
| 20260506014545 | 39 | 61 | 0.0 | 3.0 | 0.03 | 0.09 | 0.09 | 90 | 1008.4 |
| 20260506013046 | 39 | 61 | 0.0 | 5.0 | 0.04 | 0.09 | 0.09 | 89 | 1008.3 |
| 20260506011607 | 39 | 65 | 0.0 | 2.0 | 0.04 | 0.08 | 0.08 | 89 | 1008.0 |
| 20260506010036 | 40 | 54 | 1.0 | 4.0 | 0.05 | 0.07 | 0.07 | 88 | 1006.3 |
| 20260506004541 | 41 | 42 | 1.0 | 3.0 | 0.05 | 0.06 | 0.06 | 87 | 1006.7 |
| 20260506003031 | 41 | 36 | 0.0 | 1.0 | 0.05 | 0.05 | 0.05 | 86 | 1007.1 |
| 20260506001530 | 42 | 36 | 0.0 | 1.0 | 0.03 | 0.03 | 0.03 | 84 | 1007.0 |
| 20260506000023 | 43 | 36 | 0.0 | 1.0 | 0.02 | 0.02 | 0.02 | 82 | 1006.3 |
| 20260505234521 | 44 | 35 | 0.0 | 1.0 | 0.01 | 0.01 | 0.01 | 80 | 1006.4 |
| 20260505233027 | 44 | 36 | 0.0 | 2.0 | 0.00 | 0.00 | 0.00 | 76 | 1006.2 |
| 20260505231520 | 45 | 36 | 0.0 | 1.0 | 0.00 | 0.00 | 0.00 | 73 | 1006.0 |
| 20260505230014 | 45 | 34 | 0.0 | 1.0 | 0.00 | 0.00 | 0.00 | 71 | 1005.8 |
| 20260505224513 | 46 | 34 | 0.0 | 2.0 | 0.00 | 0.00 | 0.00 | 70 | 1005.9 |
| 20260505223016 | 46 | 25 | 0.0 | 2.0 | 0.00 | 0.00 | 0.00 | 70 | 1006.0 |
| 20260505221511 | 46 | 12 | 0.0 | 2.0 | 0.00 | 0.00 | 0.00 | 69 | 1005.9 |
| 20260505220022 | 46 | 11 | 0.0 | 3.0 | 0.00 | 0.00 | 0.00 | 69 | 1006.0 |
| 20260505214517 | 47 | 5 | 0.0 | 2.0 | 0.00 | 0.00 | 0.00 | 69 | 1005.8 |
| 20260505213017 | 47 | 5 | 0.0 | 3.0 | 0.00 | 0.00 | 0.00 | 68 | 1005.8 |
| 20260505211508 | 48 | 337 | 0.0 | 2.0 | 0.00 | 0.00 | 0.00 | 67 | 1005.7 |
| 20260505210007 | 48 | 335 | 0.0 | 2.0 | 0.00 | 0.00 | 0.00 | 67 | 1005.9 |
| 20260505204506 | 49 | 327 | 0.0 | 3.0 | 0.00 | 0.00 | 0.00 | 65 | 1005.8 |
| 20260505203010 | 49 | 305 | 0.0 | 4.0 | 0.00 | 0.00 | 0.00 | 64 | 1005.8 |
| 20260505201505 | 50 | 112 | 0.0 | 2.0 | 0.00 | 0.00 | 0.00 | 64 | 1005.6 |
| 20260505200006 | 51 | 57 | 0.0 | 4.0 | 0.00 | 0.00 | 0.00 | 63 | 1005.6 |
| 20260505194508 | 50 | 68 | 0.0 | 3.0 | 0.00 | 0.00 | 0.00 | 64 | 1005.7 |
| 20260505193004 | 50 | 48 | 0.0 | 3.0 | 0.00 | 0.00 | 0.00 | 64 | 1005.9 |
| 20260505191503 | 50 | 69 | 0.0 | 3.0 | 0.00 | 0.00 | 0.00 | 66 | 1006.0 |
| 20260505190004 | 50 | 67 | 0.0 | 4.0 | 0.00 | 0.00 | 0.00 | 66 | 1006.0 |
| 20260505184503 | 49 | 82 | 0.0 | 3.0 | 0.00 | 0.00 | 0.00 | 69 | 1006.0 |
| 20260505183001 | 48 | 75 | 0.0 | 3.0 | 0.00 | 0.00 | 0.00 | 70 | 1006.0 |
| 20260505181615 | 47 | 76 | 0.0 | 3.0 | 0.00 | 0.00 | 0.00 | 72 | 1006.0 |
| 20260505180100 | 46 | 73 | 0.0 | 3.0 | 0.00 | 0.00 | 0.00 | 75 | 1006.4 |
| 20260505174558 | 46 | 73 | 0.0 | 3.0 | 0.00 | 0.00 | 0.00 | 74 | 1006.2 |
| 20260505173057 | 46 | 115 | 0.0 | 3.0 | 0.00 | 0.00 | 0.00 | 75 | 1006.0 |
| 20260505171556 | 47 | 82 | 0.0 | 3.0 | 0.00 | 0.00 | 0.00 | 75 | 1006.1 |
| 20260505170055 | 47 | 119 | 0.0 | 3.0 | 0.00 | 0.00 | 0.00 | 75 | 1006.0 |
| 20260505164601 | 47 | 79 | 0.0 | 4.0 | 0.00 | 0.00 | 0.00 | 74 | 1006.1 |
| 20260505163054 | 47 | 61 | 0.0 | 3.0 | 0.00 | 0.00 | 0.00 | 74 | 1005.9 |
| 20260505161557 | 47 | 72 | 0.0 | 3.0 | 0.00 | 0.00 | 0.00 | 75 | 1005.8 |
| 20260505153107 | 46 | 81 | 0.0 | 2.0 | 0.00 | 0.00 | 0.00 | 76 | 1005.9 |
| 20260505151550 | 46 | 81 | 0.0 | 5.0 | 0.00 | 0.00 | 0.00 | 75 | 1005.9 |